Regional Weather Roundup
Issued by NWS

Home | Current Version | Previous Version | Text Only | Print | Product List | Glossary Off
Versions: 1 2 3 4 5 6 7 8 9 10 11 12 13 14 15 16 17 18 19 20 21 22 23 24 25 26 27 28 29 30 31 32 33 34 35 36 37 38 39 40 41 42 43 44 45 46 47 48 49 50

000
ASUS44 KMEG 031110
RWRTN
TENNESSEE HOURLY STATE WEATHER ROUNDUP
NATIONAL WEATHER SERVICE MEMPHIS TN
600 AM CDT TUE MAY 03 2016

TNZ002-004-019-021-049-052-054-088>092-031200-
WEST TENNESSEE

CITY           SKY/WX    TMP DP  RH WIND       PRES   REMARKS
MEMPHIS INTL   MOCLDY    55  51  86 NW3       29.99R
NWS MEMPHIS      N/A     54 N/A N/A MISG        N/A
JACKSON        CLOUDY    56  50  80 NW5       29.98R
DYERSBURG      CLOUDY    55  52  88 NW5         N/A
UNION CITY     CLOUDY    54  52  94 CALM      29.98R
LEXINGTON      CLOUDY    54  52  94 N3        29.96R
$$

TNZ008-025-027-028-033-062-065-066-031200-
NORTH MIDDLE TENNESSEE

CITY           SKY/WX    TMP DP  RH WIND       PRES   REMARKS
NASHVILLE      MOCLDY    55  49  80 NW3       29.96R
CLARKSVILLE    CLOUDY    53  49  86 NW6       29.96S
SMYRNA         CLOUDY    55  53  93 NW5       29.97R
COOKEVILLE     CLOUDY    55  55 100 N3        29.93R
CROSSVILLE     CLOUDY    55  53  93 N7        29.93R FOG
$$

TNZ061-075-076-078-094-096-097-031200-
SOUTH MIDDLE TENNESSEE

CITY           SKY/WX    TMP DP  RH WIND       PRES   REMARKS
FAYETTEVILLE   CLOUDY    57  55  94 N7        29.94R
TULLAHOMA      CLOUDY    55  55 100 N6        29.95R
WINCHESTER     CLOUDY    57  55  94 N5        29.94R
MCMINNVILLE    MOCLDY    57  57 100 N5        29.94R
COLUMBIA       MOCLDY   N/A N/A N/A N3        29.94S
SHELBYVILLE    CLOUDY    55  55 100 NE3       29.95S
$$

TNZ017-018-042-046-047-031200-
NORTHEAST TENNESSEE

CITY           SKY/WX    TMP DP  RH WIND       PRES   REMARKS
TRI CITIES     CLOUDY    59  57  93 SW3       29.88S
$$

TNZ012-013-036-069-073-074-031200-
CENTRAL EAST TENNESSEE

CITY           SKY/WX    TMP DP  RH WIND       PRES   REMARKS
KNOXVILLE      CLOUDY    62  59  90 W3        29.88R
OAK RIDGE      CLOUDY    62  59  90 CALM      29.90R
GATLINBURG     CLOUDY    59  59 100 CALM      29.88R
MORRISTOWN     CLOUDY    59  59 100 CALM      29.88R
$$

TNZ083-085-099-031200-
SOUTHEAST TENNESSEE

CITY           SKY/WX    TMP DP  RH WIND       PRES   REMARKS
CHATTANOOGA    CLOUDY    63  60  90 NW5       29.90R
$$

SKY/WX REPORTED AS FAIR MEANS FEW OR NO CLOUDS BELOW
12 THOUSAND FEET.





USA.gov is the U.S. government's official web portal to all federal, state and local government web resources and services.